Location: Geçitköy
(36.7327°N, 29.8010°E)
Time: 18:55:00
(UTC+00:00)

SL-4 R/B - Pass Details

Date: 12 January 2026
Orbit: 384 x 519 km, 51.6° (Epoch: 11 February)

Event Time Altitude Azimuth Distance (km) Brightness Sun altitude
Rises 15:30:43 0° 318° (NW) 2,644 5.8 -5.5°
Reaches altitude 10° 15:33:15 10° 332° (NNW) 1,743 4.7 -5.9°
Maximum altitude 15:36:33 25° 28° (NNE) 1,065 3.1 -6.6°
Drops below altitude 10° 15:39:45 10° 85° (E) 1,691 3.9 -7.1°
Enters shadow 15:40:18 - 89° (E) 1,871 4.1 -7.2°
